Theta_e
314 314 323 325 327 327 330 333 336 337 339 339 340 338 337 336 335 334 331 330 329 327 327 326 325 325 325 324 323 323 322 321 319 321 323 326 328 328 329 329 328 327 325
321 316 321 325 327 329 331 334 336 337 339 339 339 337 336 335 334 332 330 330 328 326 326 326 325 324 324 323 322 321 322 322 322 320 321 323 324 327 326 326 326 327 326
324 316 321 326 328 329 331 335 336 337 338 339 338 336 335 334 333 332 331 329 328 328 327 326 325 325 323 322 321 321 321 322 321 322 319 323 324 326 324 325 324 324 324
326 318 322 328 330 331 333 335 336 338 337 337 338 336 335 335 333 331 330 329 328 327 327 327 326 325 324 323 322 321 321 321 321 321 319 320 323 324 324 321 318 322 320
329 326 325 329 332 334 335 335 337 337 337 337 336 335 334 333 331 330 329 328 328 327 327 327 328 325 321 322 325 322 321 321 320 318 318 320 320 320 320 322 319 318 319
332 331 333 334 335 335 335 335 336 336 335 335 334 333 332 332 310 313 324 328 327 327 326 326 326 319 319 311 312 314 320 321 320 318 318 318 319 320 321 320 319 318 315
331 332 332 333 333 333 334 335 334 334 334 334 332 332 329 327 307 308 312 328 326 326 326 325 324 324 319 322 310 310 310 310 315 323 320 321 321 321 320 320 320 319 317
327 331 333 333 332 334 335 333 333 332 332 331 330 328 326 320 304 304 309 326 324 326 325 324 324 322 321 321 321 321 321 321 322 322 324 325 326 324 325 321 319 316 318
319 330 331 332 331 331 331 329 330 329 327 326 326 324 322 316 300 302 317 325 324 323 323 323 323 321 306 302 321 318 319 316 304 302 305 304 302 305 316 320 316 315 313
319 331 329 330 329 328 327 326 329 327 323 323 321 322 313 313 298 301 317 324 322 322 321 321 307 317 300 299 320 318 317 317 316 316 315 308 309 311 308 324 320 315 314
322 322 330 329 326 326 325 325 325 323 321 320 318 317 317 314 307 300 304 325 324 322 322 319 316 299 297 297 306 321 317 317 313 318 318 318 319 317 321 322 322 321 317
320 323 328 326 326 325 323 323 323 321 318 316 315 315 314 314 303 300 300 307 310 323 322 320 310 297 296 297 306 298 300 309 318 318 317 317 316 317 319 320 321 321 320
321 324 325 325 325 324 323 322 321 320 318 316 316 314 313 313 310 298 299 298 303 320 321 309 297 296 296 300 297 299 304 318 318 318 316 316 317 319 319 318 319 320 319
318 325 325 323 322 324 323 323 322 320 319 317 315 314 311 314 314 313 310 308 303 309 304 305 304 303 302 305 305 309 319 319 318 317 316 317 318 318 317 318 316 316 315
317 325 324 322 321 312 307 315 323 322 320 319 318 316 314 313 314 310 311 317 317 310 310 314 316 316 313 313 314 316 318 317 317 316 316 316 316 317 317 317 317 317 314
318 322 322 320 317 314 314 310 295 298 299 300 302 312 317 304 296 298 299 299 298 299 314 314 315 315 315 314 314 314 314 312 316 316 316 316 316 316 316 316 317 315 314
323 322 319 318 318 317 318 317 311 302 295 295 297 299 303 298 295 295 295 294 296 303 315 315 315 314 314 315 316 315 313 315 317 317 316 317 316 316 313 315 315 315 314
323 309 320 319 319 319 319 318 317 317 316 311 296 299 294 294 293 293 294 299 311 312 315 315 314 315 315 315 316 316 315 314 316 316 316 316 316 315 315 315 316 316 316
322 321 321 320 319 316 318 318 318 318 316 308 307 300 293 292 292 293 296 315 314 315 314 314 314 315 316 316 318 317 316 315 314 315 315 315 315 314 314 315 315 302 307
317 303 311 318 318 318 318 317 316 314 313 313 312 307 305 308 310 312 314 316 315 317 316 315 316 316 317 318 318 318 315 313 315 316 316 317 317 316 314 315 316 316 315
318 316 303 320 319 319 317 316 315 314 314 312 310 307 295 315 313 314 315 316 317 317 318 317 316 317 318 319 319 317 316 316 317 317 317 318 318 317 319 317 316 316 316
319 320 320 319 319 318 316 316 316 315 314 311 309 303 293 315 314 315 316 315 314 312 317 319 317 315 316 317 318 318 317 317 318 318 318 318 318 318 318 318 318 318 315
322 322 321 320 319 307 315 316 315 313 312 311 310 310 312 314 313 307 304 302 301 300 300 301 302 302 302 302 305 307 316 317 317 320 320 319 318 319 320 319 317 317 317
323 323 322 320 319 318 317 316 313 305 310 310 311 307 304 302 300 299 298 296 295 295 295 295 294 294 295 295 297 297 296 300 304 310 313 318 320 315 319 318 319 319 319
313 313 315 320 319 318 316 315 313 312 311 307 302 299 298 297 296 294 294 294 294 292 292 293 293 292 292 291 292 293 288 287 300 295 314 316 317 319 321 321 319 317 315
305 305 305 310 316 315 312 309 307 302 299 297 296 296 295 294 293 293 292 291 291 290 290 290 290 290 290 290 288 287 287 288 293 290 301 302 301 302 304 303 303 302 303
Wind_Speed
14 14 14 12 13 10 11 10 10 9 11 12 12 11 10 10 9 8 7 9 8 7 5 6 6 5 4 4 3 2 3 3 3 1 1 1 2 4 6 5 5 5 4
15 12 14 11 11 12 12 10 11 11 11 12 12 11 11 10 10 10 10 8 9 8 7 7 7 4 5 4 4 4 3 3 2 3 1 1 2 4 6 8 4 5 5
15 12 11 11 13 12 12 12 12 12 12 12 13 13 12 11 11 9 10 9 8 7 8 7 7 7 6 4 4 4 3 2 2 2 3 1 1 3 4 5 5 6 4
15 12 13 14 15 13 12 13 14 13 14 13 13 13 12 11 11 10 9 8 7 6 7 7 7 8 8 7 6 6 4 4 3 4 3 2 2 3 3 4 4 3 3
11 11 12 12 12 12 11 12 12 13 12 13 13 12 11 11 8 10 9 8 8 7 6 6 6 7 8 7 5 6 6 4 4 4 5 3 3 4 6 3 4 5 4
9 6 8 12 13 13 14 14 13 12 12 14 13 14 13 8 13 13 11 9 7 7 7 5 5 6 6 6 7 9 8 7 5 5 5 5 5 4 4 5 6 5 3
6 9 11 11 12 13 14 13 13 13 14 13 12 12 10 8 15 14 13 7 7 6 6 6 5 3 5 5 4 5 6 8 5 7 7 8 7 7 8 8 5 5 3
7 5 9 11 11 11 11 12 11 12 14 12 11 10 9 6 13 13 12 8 6 6 6 6 5 5 5 7 6 5 5 5 4 3 7 6 7 9 9 6 7 6 6
10 3 6 9 11 12 12 13 12 12 12 10 10 10 10 6 9 13 10 7 7 6 5 5 5 5 6 8 7 6 5 2 4 4 2 9 11 13 10 9 6 8 3
7 2 5 8 11 13 13 13 11 11 9 8 9 9 10 9 7 11 10 6 7 5 5 4 4 5 8 8 7 8 6 4 4 5 5 6 9 11 13 7 10 8 5
2 8 6 6 9 10 12 12 11 11 10 9 10 7 8 8 6 8 11 7 7 6 6 4 3 6 8 6 6 6 5 6 6 5 5 5 6 7 4 5 5 7 7
5 3 6 8 9 7 13 10 12 12 12 10 10 7 5 6 6 6 8 8 8 7 6 4 4 5 9 8 5 8 11 8 5 5 5 4 4 5 4 3 3 3 3
2 3 9 8 9 10 12 11 10 10 10 9 8 7 5 3 4 6 6 8 9 4 4 7 9 5 9 5 10 11 9 6 6 5 4 2 3 5 5 4 4 5 4
4 6 12 10 10 9 8 8 9 8 8 8 8 7 6 4 4 4 4 6 9 8 9 6 5 6 6 6 5 4 4 5 5 6 5 3 4 4 3 3 3 3 2
3 3 11 10 11 9 8 4 7 5 9 9 7 8 8 6 5 8 8 6 6 7 8 5 3 2 3 3 3 3 4 4 5 4 5 4 3 4 3 4 4 4 2
5 5 7 10 9 9 9 8 17 10 11 10 11 10 4 10 13 10 10 10 14 12 3 4 4 3 3 3 4 3 2 3 4 4 5 5 4 4 4 4 3 3 4
21 14 9 11 10 9 8 9 8 9 17 13 10 12 10 11 13 12 12 12 9 5 3 4 4 4 3 4 4 3 3 3 4 5 5 6 4 3 5 4 4 4 3
16 16 11 9 10 10 9 9 9 9 7 5 13 9 8 15 13 14 14 9 2 2 2 4 4 4 3 3 4 4 4 4 4 4 4 4 4 4 4 4 5 5 5
11 10 10 9 8 10 9 9 8 9 8 7 5 8 10 13 12 12 5 4 3 2 2 2 2 3 3 3 4 5 6 5 4 4 4 4 4 4 3 3 3 4 3
9 12 12 10 9 9 8 9 9 8 7 7 6 5 4 5 4 2 3 3 2 2 3 3 3 2 3 3 4 5 5 5 5 4 4 5 5 4 4 4 3 4 3
9 6 12 9 8 8 9 9 9 9 8 7 6 5 7 7 6 4 3 2 2 2 3 3 3 2 2 2 4 4 4 4 4 4 4 5 4 4 5 4 4 4 3
10 8 8 9 8 9 9 9 9 10 9 9 7 4 9 6 6 4 3 4 5 5 4 4 4 4 4 3 2 3 4 4 3 4 3 4 4 4 4 5 5 4 3
10 9 8 8 9 11 10 9 9 10 9 9 8 6 5 5 6 7 7 7 7 7 7 8 7 6 6 6 6 5 3 2 2 1 3 4 4 4 5 4 3 3 3
9 10 8 9 9 9 9 9 10 10 10 9 8 8 8 8 8 9 8 8 8 8 8 8 9 10 7 7 6 6 5 3 2 1 1 1 2 3 2 2 3 5 6
9 9 7 8 9 9 10 10 11 11 11 9 9 9 9 9 10 10 9 8 8 9 11 10 9 12 15 15 14 13 10 7 4 2 2 3 1 2 2 1 2 4 6
11 12 9 7 9 9 10 10 11 11 12 11 10 10 10 10 9 9 9 10 9 10 11 9 13 17 17 14 15 14 13 13 12 11 9 9 9 8 8 9 10 7 8
Wind_Direction
269 241 223 212 201 187 190 181 173 154 159 166 165 156 161 156 157 161 154 150 146 144 152 167 180 160 162 173 156 151 165 152 184 132 46 26 75 109 96 94 94 99 96
271 228 209 196 180 176 172 172 163 167 166 160 157 152 155 163 154 160 151 154 150 163 167 172 174 159 161 170 164 175 180 180 168 147 104 80 91 105 107 99 85 78 98
278 223 197 180 176 182 180 171 163 161 163 155 152 156 163 165 154 160 155 156 158 167 169 175 166 168 173 175 167 184 193 168 157 135 132 136 102 127 102 87 83 73 66
274 211 194 184 177 178 175 170 163 167 158 156 158 158 162 162 154 152 151 150 158 168 171 170 172 184 180 175 180 187 185 170 148 125 140 122 112 111 108 121 96 65 70
246 197 192 178 163 153 161 162 156 156 156 154 151 154 158 154 154 148 153 157 165 163 178 170 185 188 175 172 172 178 172 168 152 150 159 139 129 151 152 130 116 112 55
231 172 155 157 146 156 161 157 151 143 147 149 155 154 152 154 153 149 153 160 163 167 174 178 172 162 172 181 189 167 173 172 171 160 168 171 152 141 133 141 138 127 121
236 160 143 138 147 152 150 149 146 148 148 150 150 140 155 144 151 156 151 157 158 166 155 168 155 146 150 166 176 191 183 190 197 168 173 179 167 169 152 151 154 129 114
313 150 138 135 146 141 142 144 144 150 151 144 138 142 140 138 155 161 151 143 137 146 154 159 157 160 162 157 159 162 174 201 199 179 187 173 160 157 160 146 130 102 88
324 143 134 134 137 145 148 148 145 137 131 130 135 137 134 135 151 143 135 133 132 139 147 145 152 150 161 156 148 144 132 143 37 54 171 130 134 131 136 130 138 134 125
12 111 129 153 150 146 141 140 134 125 108 123 115 127 123 136 143 141 126 128 129 135 131 121 93 153 163 170 153 157 157 167 164 128 109 90 139 150 155 161 148 151 135
297 351 126 126 122 138 125 114 118 116 113 112 106 96 106 136 135 136 137 145 146 146 150 146 128 142 153 160 150 160 161 143 134 123 117 124 139 149 145 136 171 170 159
143 3 124 124 126 127 117 123 117 120 116 115 111 102 100 101 97 131 143 125 139 147 159 138 121 170 149 159 154 138 129 132 133 128 129 130 133 140 129 136 141 114 71
285 181 130 127 128 127 129 124 118 118 125 129 127 124 118 117 101 101 111 124 127 105 119 117 119 126 135 121 135 142 139 141 139 134 130 111 132 130 119 103 93 101 74
318 149 122 127 121 132 121 121 124 131 128 130 127 128 139 132 119 122 122 108 101 92 109 112 127 105 90 111 112 157 147 149 145 151 138 121 120 139 136 134 136 142 104
109 101 129 140 126 96 67 83 129 119 146 145 145 149 147 153 174 158 149 146 140 126 118 122 127 115 114 128 139 154 155 150 144 142 141 141 139 148 134 156 146 156 159
162 102 147 133 123 124 120 86 41 59 95 105 132 138 113 116 129 132 136 125 128 139 105 135 145 161 158 155 161 147 142 146 144 150 149 152 162 161 153 160 149 155 175
153 149 156 129 135 132 126 122 112 52 66 63 85 110 121 138 132 132 123 119 125 112 120 153 167 171 161 165 162 160 155 161 153 161 164 162 162 160 154 162 162 164 156
134 138 134 137 135 138 133 129 133 140 125 92 45 61 94 120 117 118 117 103 98 70 123 174 174 180 178 172 168 155 148 148 164 159 161 155 151 154 155 163 170 189 191
123 118 116 118 118 109 118 123 122 121 111 108 114 70 70 83 100 123 134 117 136 142 140 161 165 173 177 177 173 154 153 158 159 161 162 162 160 150 153 159 163 173 158
81 98 105 108 107 116 119 114 109 105 107 111 102 106 120 109 109 108 79 122 153 144 150 161 171 167 167 168 155 147 139 148 167 170 174 176 172 169 163 168 178 187 188
104 91 106 113 126 125 117 109 114 120 110 101 102 104 106 111 113 117 124 148 153 145 153 146 140 141 136 136 138 140 140 146 163 159 170 187 182 190 193 186 182 188 180
114 125 125 126 121 113 111 115 120 124 114 114 112 86 102 108 122 123 100 56 36 37 24 99 73 48 40 52 102 127 139 143 156 170 181 192 181 181 179 199 200 200 197
125 119 121 120 113 114 112 120 116 118 115 118 120 108 108 97 87 74 71 59 48 48 40 46 48 46 35 35 35 28 53 91 56 200 190 186 190 208 214 209 194 203 206
115 113 126 124 129 121 124 123 111 108 112 118 116 89 90 85 81 73 69 64 59 58 55 58 55 52 46 42 32 28 13 338 311 28 44 234 225 201 204 205 228 245 253
81 86 73 112 117 119 117 114 112 111 107 92 89 85 85 82 79 75 73 69 67 66 61 57 56 54 52 51 48 41 19 9 27 22 38 50 198 311 299 267 340 39 49
76 73 68 74 87 93 94 92 92 93 91 87 84 83 84 80 77 75 73 73 70 64 64 60 61 60 56 48 41 38 34 41 54 43 51 51 54 51 55 56 56 59 54